sat.trackr.live / text

‹ back to catalog

PIESAT B

NORAD 56154 · 2023-047B

PAYLOAD ACTIVE UNKNOWN

§ Identity

Operator
Country
PRC
Launch date
2023-03-30
Launch site
TAISC
Launch vehicle
Mass (kg)
RCS (m²)

External: N2YO · Heavens-Above · Gunter

§ Orbital elements

Epoch: 2026-05-24T10:22:38.693856Z

Period
95.09 min
Inclination
97.4997°
Eccentricity
0.0001568
Mean motion
15.14308603 rev/d
Perigee alt
522.0 km
Apogee alt
524.2 km
Semi-major
6,901.2 km
B*
1.1103e-4
RAAN
331.9202°
Arg perigee
84.1437°
Mean anomaly
275.9973°
Rev number
17,420

§ Raw data

PIESAT B1 56154U 23047B   26144.43239229  .00001967  00000+0  11103-3 0  99992 56154  97.4997 331.9202 0001568  84.1437 275.9973 15.14308603174202

JSON: /api/v1/satellites/56154 · /tle

For live sub-satellite position, see the globe view (requires WebGL).

§ Visibility from observer

Set your observer location to see the next 7 days of passes ≥ 10°. The values pass through the URL so the page stays shareable.

No JS? Fill the form by hand. The geolocation button needs JavaScript.